[[{"header":{"parameterUnit":"m.s-1","parameterCategory":1,"la1":30.2991,"la2":30.254,"lo1":-89.0895,"lo2":-89.0444,"dy":0.0017,"dx":0.0017,"nx":28,"ny":28,"refTime":"2024-08-29T03:00:00:Z","depth":0,"parameterNumber":2,"parameterNumberName":"U-component_of_WINDS"},"data":[0,0,0,0,0,0,0,0,0,0,0,0,0,0,0,0,0,0,0,0,0,0,0,0,0,0,0,0,0,0,0,0,0,0,0,0,0,0,0,0,0,0,0,0,0,0,0,0,0,0,0,0,0,0,0,0,0,0,-2.3994,-2.3994,0,-2.4059,-2.406,-2.406,-2.4032,-2.403,-2.4028,-2.4027,-2.4093,-2.4096,-2.4099,0,0,0,0,0,0,0,0,0,0,0,0,0,-2.3843,-2.3846,-2.3993,-2.3994,-2.3995,-2.4059,-2.406,-2.4061,-2.4032,-2.403,-2.4028,-2.4026,-2.4092,-2.4096,-2.41,0,0,0,0,0,0,0,0,0,0,0,0,0,-2.3908,-2.3847,-2.3993,-2.3988,-2.3989,-2.4059,-2.406,-2.4061,-2.4032,-2.403,-2.4028,-2.4025,-2.4091,-2.4095,-2.41,-2.4178,0,0,-2.4115,-2.4117,0,0,0,0,0,0,0,0,-2.3904,-2.3914,-2.3988,-2.3989,-2.3989,-2.4035,-2.4031,-2.41,-2.4033,-2.4016,-2.4027,-2.4024,-2.4076,-2.4081,-2.4099,-2.4182,-2.4184,-2.4116,-2.4119,-2.4121,-2.4122,0,0,0,0,0,0,0,-2.39,-2.3911,-2.4019,-2.3989,-2.399,-2.3983,-2.3989,-2.4044,-2.4058,-2.4017,-2.4015,-2.4023,-2.4075,-2.4094,-2.41,-2.4185,-2.4115,-2.412,-2.4123,-2.4125,-2.4335,-2.4337,0,0,0,0,0,0,-2.3896,-2.3907,-2.4017,-2.4021,-2.394,-2.3987,-2.3995,-2.4023,-2.4058,-2.4061,-2.4025,-2.4022,-2.4087,-2.4095,-2.4103,-2.4196,-2.4121,-2.4125,-2.4128,-2.4332,-2.4336,-2.4338,0,0,0,0,0,0,-2.3892,-2.3906,-2.4015,-2.3964,-2.3977,-2.3993,-2.4024,-2.4025,-2.4044,-2.4064,-2.4066,-2.4042,-2.4086,-2.4096,-2.416,-2.4198,-2.4127,-2.4132,-2.4329,-2.4333,-2.4337,-2.4383,0,0,0,0,0,0,-2.3888,-2.3905,-2.3935,-2.3965,-2.398,-2.4071,-2.4026,-2.4028,-2.4053,-2.4049,-2.408,-2.4083,-2.4085,-2.4153,-2.4165,-2.4203,-2.4136,-2.4326,-2.4331,-2.4336,-2.4378,-2.4388,-2.4397,0,0,0,0,0,-2.3883,-2.3945,-2.3936,-2.395,-2.4018,-2.4073,-2.4082,-2.4082,-2.4056,-2.4086,-2.4099,-2.4082,-2.4192,-2.4159,-2.4173,-2.4213,-2.4323,-2.433,-2.4335,-2.4374,-2.4386,-2.4396,0,0,0,0,0,0,-2.3918,-2.3949,-2.394,-2.4013,-2.4041,-2.4068,-2.4106,-2.4095,-2.4131,-2.4125,-2.4124,-2.4132,-2.4198,-2.4212,-2.4175,-2.4291,-2.4254,-2.4262,-2.4278,-2.429,-2.4299,-2.4294,-2.414,0,0,0,0,0,-2.3935,-2.3978,-2.4002,-2.4065,-2.4079,-2.409,-2.4115,-2.4113,-2.4141,-2.4153,-2.417,-2.4198,-2.4239,-2.4265,-2.4304,-2.4381,-2.4387,-2.4415,-2.4424,-2.4432,-2.4439,-2.448,-2.4493,-2.4358,-2.4358,-2.4358,0,0,-2.3969,-2.3991,-2.4018,-2.4072,-2.4093,-2.4137,-2.41,-2.4148,-2.4181,-2.416,-2.4221,-2.4235,-2.4266,-2.4337,-2.4369,-2.4351,-2.4478,-2.4439,-2.4445,-2.4448,-2.4487,-2.45,-2.4511,-2.4362,-2.4361,-2.4361,0,0,-2.4054,-2.4075,-2.4129,-2.4151,-2.4184,-2.4192,-2.4205,-2.4234,-2.4243,-2.4305,-2.4289,-2.4328,-2.4399,-2.4421,-2.4442,-2.4536,-2.4522,-2.4549,-2.4596,-2.4636,-2.4647,-2.4656,-2.4689,-2.4701,-2.4556,-2.4557,-2.4557,0,-2.4092,-2.4158,-2.4158,-2.4208,-2.4232,-2.4216,-2.427,-2.4292,-2.4335,-2.4352,-2.4332,-2.442,-2.444,-2.4515,-2.4538,-2.4556,-2.457,-2.4544,-2.4645,-2.4655,-2.4664,-2.4695,-2.4707,-2.456,-2.4559,-2.4559,-2.4559,0,-2.4202,-2.4248,-2.4288,-2.4331,-2.436,-2.4412,-2.442,-2.4449,-2.4445,-2.4454,-2.4517,-2.4541,-2.4584,-2.4602,-2.4599,-2.4677,-2.4665,-2.4645,-2.4608,-2.4679,-2.4708,-2.472,-2.4564,-2.4563,-2.4562,-2.4561,0,0,-2.4309,-2.4353,-2.4367,-2.4386,-2.4422,-2.4457,-2.4509,-2.4551,-2.4575,-2.4607,-2.4649,-2.4709,-2.4691,-2.4715,-2.4714,-2.475,-2.4821,-2.4726,-2.4726,-2.4741,-2.4908,-2.4922,-2.4935,-2.4813,-2.4815,-2.4817,-2.4905,0,-2.4395,-2.4485,-2.4487,-2.4569,-2.4611,-2.4597,-2.4642,-2.4668,-2.4679,-2.4716,-2.4727,-2.477,-2.4744,-2.4758,-2.4792,-2.4805,-2.4855,-2.4799,-2.4851,-2.4853,-2.4842,-2.4951,-2.4965,-2.5047,-2.4917,-2.4919,-2.492,0,-2.4507,-2.4542,-2.4628,-2.4658,-2.4676,-2.4716,-2.4754,-2.4791,-2.482,-2.4826,-2.4853,-2.4847,-2.4899,-2.4861,-2.4932,-2.4894,-2.4916,-2.4926,-2.4929,-2.4933,-2.489,-2.4956,-2.5073,-2.5085,-2.4938,-2.4937,-2.4935,0,-2.4575,-2.4644,-2.4704,-2.4721,-2.4757,-2.4786,-2.4802,-2.483,-2.4855,-2.4889,-2.4906,-2.4946,-2.4967,-2.4998,-2.5003,-2.4976,-2.5074,-2.5037,-2.5079,-2.5079,-2.5099,-2.5097,-2.522,-2.5116,-2.5116,-2.5116,-2.5115,0,-2.467,-2.4722,-2.4735,-2.4772,-2.4831,-2.4833,-2.4891,-2.4906,-2.493,-2.497,-2.496,-2.4997,-2.5002,-2.5041,-2.5045,-2.5103,-2.5113,-2.5118,-2.5118,-2.5118,-2.5117,-2.5131,-2.5125,-2.5119,-2.5118,-2.5118,-2.5117,0,-2.4754,-2.4765,-2.4829,-2.4859,-2.4868,-2.491,-2.4935,-2.497,-2.498,-2.503,-2.5041,-2.5057,-2.5102,-2.511,-2.5163,-2.5166,-2.5234,-2.523,-2.5224,-2.5223,-2.5264,-2.5259,-2.5398,-2.5416,-2.5302,-2.5303,-2.5304,0,-2.4813,-2.4854,-2.4888,-2.4914,-2.4931,-2.4973,-2.4999,-2.5004,-2.5031,-2.5068,-2.5099,-2.5143,-2.5178,-2.525,-2.5265,-2.5306,-2.5301,-2.5347,-2.5307,-2.5305,-2.53,-2.5297,-2.53,-2.5354,-2.5355,-2.5356,-2.5357,0,-2.4916,-2.492,-2.4958,-2.4998,-2.5029,-2.5061,-2.5091,-2.5113,-2.5121,-2.5152,-2.5198,-2.5225,-2.5279,-2.5322,-2.5363,-2.5379,-2.5369,-2.537,-2.5381,-2.5381,-2.5375,-2.5377,-2.5243,-2.5366,-2.5365,-2.5364,-2.5364,-2.5364,-2.4989,-2.5024,-2.5054,-2.5096,-2.512,-2.5148,-2.5182,-2.5197,-2.5235,-2.5279,-2.528,-2.533,-2.5359,-2.5412,-2.5431,-2.547,-2.5455,-2.5473,-2.5477,-2.548,-2.5484,-2.5371,-2.5478,-2.5477,-2.5477,-2.5477,-2.5477,0,-2.509,-2.5109,-2.5148,-2.5191,-2.5224,-2.5213,-2.5246,-2.5275,-2.5319,-2.5347,-2.5382,-2.5434,-2.5476,-2.5496,-2.5537,-2.5565,-2.5561,-2.5575,-2.5572,-2.5576,-2.5495,-2.548,-2.5577,-2.5577,-2.5577,-2.5577,-2.5577,-2.5577,-2.5147,-2.5205,-2.5213,-2.5283,-2.5301,-2.5349,-2.5369,-2.5395,-2.5418,-2.5476,-2.5512,-2.5524,-2.5549,-2.5592,-2.5631,-2.5635,-2.565,-2.5666,-2.5669,-2.5592,-2.5582,-2.5572,-2.5558,-2.567,-2.567,-2.5746,-2.5747,-2.5748]},{"header":{"parameterUnit":"m.s-1","parameterCategory":1,"la1":30.2991,"la2":30.254,"lo1":-89.0895,"lo2":-89.0444,"dy":0.0017,"dx":0.0017,"nx":28,"ny":28,"refTime":"2024-08-29T03:00:00:Z","depth":0,"parameterNumber":3,"parameterNumberName":"V-component_of_WINDS"},"data":[0,0,0,0,0,0,0,0,0,0,0,0,0,0,0,0,0,0,0,0,0,0,0,0,0,0,0,0,0,0,0,0,0,0,0,0,0,0,0,0,0,0,0,0,0,0,0,0,0,0,0,0,0,0,0,0,0,0,0.9731,0.9731,0,0.9732,0.9732,0.9732,0.9643,0.9641,0.9638,0.9636,0.9643,0.9645,0.9647,0,0,0,0,0,0,0,0,0,0,0,0,0,0.9657,0.9658,0.9731,0.9731,0.9731,0.9732,0.9732,0.9732,0.9644,0.9641,0.9638,0.9635,0.9642,0.9645,0.9647,0,0,0,0,0,0,0,0,0,0,0,0,0,0.9677,0.9659,0.9731,0.9687,0.9683,0.9732,0.9732,0.9732,0.9644,0.9641,0.9637,0.9634,0.9641,0.9644,0.9648,0.9741,0,0,0.9659,0.966,0,0,0,0,0,0,0,0,0.9676,0.968,0.9693,0.969,0.9685,0.9684,0.9708,0.9735,0.9645,0.9659,0.9636,0.9632,0.966,0.9661,0.967,0.9741,0.9742,0.9659,0.9661,0.9663,0.9664,0,0,0,0,0,0,0,0.9674,0.9679,0.9731,0.9693,0.9689,0.9669,0.9667,0.9713,0.9679,0.9657,0.9651,0.9652,0.9657,0.9666,0.9669,0.9742,0.9659,0.9662,0.9664,0.9666,0.9893,0.9897,0,0,0,0,0,0,0.9678,0.9678,0.9731,0.9731,0.9672,0.9673,0.9671,0.9688,0.9679,0.9674,0.9655,0.9648,0.9662,0.9665,0.9669,0.9779,0.9663,0.9666,0.9668,0.9889,0.9894,0.9898,0,0,0,0,0,0,0.9677,0.9684,0.9731,0.9703,0.9708,0.9678,0.9697,0.969,0.9699,0.9677,0.9671,0.9671,0.9659,0.9664,0.9724,0.9778,0.9668,0.9671,0.9885,0.9891,0.9896,0.9999,0,0,0,0,0,0,0.9675,0.9684,0.9718,0.9705,0.9709,0.9785,0.97,0.9692,0.9705,0.9696,0.969,0.9685,0.9657,0.9719,0.9728,0.9781,0.9674,0.988,0.9887,0.9894,0.9991,1.0008,1.0022,0,0,0,0,0,0.9673,0.9747,0.972,0.9727,0.9751,0.9788,0.9791,0.9755,0.971,0.9744,0.973,0.9686,0.9771,0.9726,0.9735,0.979,0.9876,0.9885,0.9894,0.9984,1.0004,1.0022,0,0,0,0,0,0,0.9768,0.9744,0.9714,0.9786,0.979,0.9773,0.9815,0.9778,0.9796,0.9787,0.9743,0.9742,0.981,0.9806,0.9757,0.9881,0.9816,0.9827,0.9881,0.9901,0.9916,0.9916,0.9677,0,0,0,0,0,0.9797,0.9828,0.9806,0.9872,0.9875,0.9845,0.986,0.9832,0.9835,0.9837,0.9827,0.9833,0.9861,0.9881,0.9905,0.999,0.9989,1.0032,1.0048,1.0061,1.0071,1.0118,1.0138,0.9927,0.9927,0.9927,0,0,0.9858,0.9849,0.9871,0.9891,0.989,0.9925,0.9847,0.9887,0.9913,0.9843,0.9899,0.9893,0.9897,0.997,1.0002,0.9969,1.013,1.0072,1.0083,1.0086,1.0129,1.0149,1.0167,0.9933,0.9932,0.9931,0,0,0.9987,0.9983,1.0037,1.0039,1.0039,1.0019,1.0032,1.0022,1.0015,1.007,1.0019,1.0051,1.0099,1.0105,1.0114,1.0248,1.0208,1.0257,1.034,1.0386,1.0402,1.0417,1.0466,1.0484,1.0267,1.0268,1.0268,0,1.0063,1.0111,1.0071,1.0114,1.0125,1.0063,1.0119,1.0123,1.0133,1.0143,1.0105,1.0166,1.0164,1.0239,1.0272,1.0281,1.0297,1.0257,1.0403,1.0417,1.043,1.0477,1.0495,1.0274,1.0273,1.0272,1.0272,0,1.0206,1.0241,1.0285,1.0295,1.0311,1.0361,1.033,1.0351,1.0323,1.0308,1.0367,1.0362,1.0386,1.0401,1.0374,1.0474,1.0453,1.041,1.0344,1.0457,1.05,1.0518,1.0282,1.028,1.0278,1.0277,0,0,1.0394,1.0381,1.0398,1.0402,1.0399,1.0426,1.0475,1.0496,1.0517,1.0526,1.0567,1.0611,1.0571,1.0582,1.0555,1.0596,1.0704,1.0548,1.0547,1.0578,1.0816,1.0849,1.087,1.0678,1.0681,1.0684,1.0816,0,1.0519,1.0599,1.0565,1.0649,1.0682,1.0625,1.0667,1.0671,1.0659,1.0687,1.0674,1.0706,1.0651,1.0657,1.0695,1.0683,1.0752,1.0673,1.0718,1.072,1.0719,1.0892,1.0927,1.1052,1.0832,1.0835,1.0837,0,1.0676,1.0691,1.0779,1.0771,1.0784,1.0823,1.0841,1.0868,1.0872,1.0861,1.0874,1.0838,1.0888,1.0822,1.0891,1.0838,1.0855,1.0852,1.0856,1.0859,1.0786,1.0902,1.1091,1.111,1.0863,1.0861,1.0859,0,1.0806,1.0848,1.0906,1.0912,1.0904,1.0933,1.0932,1.0933,1.0949,1.0966,1.0976,1.0999,1.1013,1.1032,1.1006,1.0959,1.1079,1.101,1.1073,1.1074,1.1101,1.11,1.1297,1.1111,1.111,1.111,1.111,0,1.095,1.1007,1.0965,1.1001,1.1063,1.1024,1.1087,1.108,1.1082,1.1117,1.1069,1.1104,1.1065,1.1097,1.1077,1.1138,1.1144,1.1138,1.1132,1.1143,1.1144,1.1154,1.1145,1.1115,1.1114,1.1113,1.1112,0,1.1106,1.108,1.114,1.1128,1.1127,1.1173,1.1164,1.1198,1.1183,1.1229,1.1237,1.1214,1.1249,1.1224,1.126,1.1246,1.1327,1.1309,1.1325,1.1321,1.1386,1.138,1.1596,1.1623,1.1419,1.1421,1.1423,0,1.12,1.1242,1.1235,1.1254,1.1256,1.1288,1.1304,1.1269,1.1288,1.1298,1.1331,1.1362,1.1385,1.1444,1.1432,1.1459,1.1442,1.1516,1.1446,1.1456,1.1445,1.1443,1.1448,1.153,1.1533,1.1534,1.1536,0,1.137,1.1356,1.138,1.1401,1.1421,1.1436,1.1448,1.1467,1.1431,1.1456,1.1491,1.1508,1.1544,1.1577,1.16,1.1601,1.1564,1.1558,1.1574,1.1586,1.1595,1.1593,1.1365,1.1553,1.1552,1.155,1.155,1.1549,1.1498,1.1534,1.1535,1.1564,1.1569,1.1581,1.1613,1.1602,1.163,1.1656,1.1634,1.1676,1.1682,1.1709,1.1715,1.1749,1.1719,1.1743,1.1749,1.1755,1.1765,1.1589,1.1753,1.1753,1.1752,1.1752,1.1752,0,1.1667,1.1666,1.1693,1.171,1.1735,1.1696,1.1707,1.1731,1.1768,1.1776,1.18,1.1841,1.1873,1.1864,1.1892,1.1922,1.1906,1.1931,1.1929,1.193,1.1789,1.1773,1.1943,1.1943,1.1943,1.1943,1.1943,1.1943,1.1758,1.1816,1.1803,1.1864,1.1862,1.1902,1.1912,1.1924,1.1931,1.1979,1.2004,1.1997,1.2,1.2028,1.2057,1.2053,1.2067,1.2099,1.209,1.1958,1.194,1.1922,1.1906,1.2101,1.2102,1.2227,1.2228,1.2229]}]]